DW4332 Weather Reports


time (UTC)temp
C
wind
direction
speed
KPH
gust
KPH
rain 1hr
cm
rain 24hr
cm
rain mn
cm
humidity
%
barometer
mb
20260504004520 11 186 0.0 0.0 0.00 0.00 0.00 52 1011.4
20260504003018 11 186 0.0 0.0 0.00 0.00 0.00 50 1011.3
20260504001517 12 186 0.0 0.0 0.00 0.00 0.00 47 1011.0
20260504000015 12 186 0.0 0.0 0.00 0.00 0.00 43 1010.9
20260503234516 13 186 0.0 0.0 0.00 0.00 0.00 42 1010.7
20260503233015 13 186 0.0 0.0 0.00 0.00 0.00 41 1010.5
20260503231517 13 221 0.0 0.0 0.00 0.00 0.00 40 1010.6
20260503230017 13 319 0.0 0.0 0.00 0.00 0.00 41 1010.5
20260503224516 14 287 0.0 0.0 0.00 0.00 0.00 39 1010.4
20260503223015 15 194 0.0 0.0 0.00 0.00 0.00 40 1010.4
20260503221513 15 291 3.2 0.0 0.00 0.00 0.00 35 1010.2
20260503220011 15 279 4.8 0.0 0.00 0.00 0.00 34 1010.3
20260503214513 15 303 4.8 0.0 0.00 0.00 0.00 34 1010.3
20260503213009 16 303 3.2 0.0 0.00 0.00 0.00 35 1010.1
20260503211508 16 246 4.8 0.0 0.00 0.00 0.00 36 1010.2
20260503210008 16 285 4.8 0.0 0.00 0.00 0.00 36 1010.2
20260503204516 16 264 4.8 0.0 0.00 0.00 0.00 36 1010.1
20260503203007 16 269 6.4 0.0 0.00 0.00 0.00 32 1010.1
20260503201509 17 325 1.6 0.0 0.00 0.00 0.00 35 1010.0
20260503200007 16 264 3.2 0.0 0.00 0.00 0.00 39 1010.2
20260503194505 16 290 3.2 0.0 0.00 0.00 0.00 35 1010.3
20260503193003 16 291 4.8 0.0 0.00 0.00 0.00 36 1010.4
20260503191509 16 285 4.8 0.0 0.00 0.00 0.00 37 1010.6
20260503190059 16 309 1.6 0.0 0.00 0.00 0.00 40 1010.8
20260503184605 15 294 6.4 0.0 0.00 0.00 0.00 42 1010.8
20260503183057 14 280 6.4 0.0 0.00 0.00 0.00 40 1010.9
20260503181602 14 286 4.8 0.0 0.00 0.00 0.00 41 1011.0
20260503180111 15 311 3.2 0.0 0.00 0.00 0.00 40 1011.1
20260503174555 15 301 4.8 0.0 0.00 0.00 0.00 40 1011.2
20260503173105 15 211 4.8 0.0 0.00 0.00 0.00 40 1011.2
20260503171554 14 252 3.2 0.0 0.00 0.00 0.00 43 1011.1
20260503160104 13 240 3.2 0.0 0.00 0.00 0.00 44 1011.4
20260503081559 7 296 0.0 0.0 0.00 0.00 0.00 63 1008.5
20260503071556 8 304 0.0 0.0 0.00 0.00 0.00 59 1008.7
20260503060108 10 317 0.0 0.0 0.00 0.00 0.00 58 1008.8
20260503054542 10 309 0.0 0.0 0.00 0.00 0.00 58 1009.0
20260503053041 10 315 0.0 0.0 0.00 0.00 0.00 58 1009.2
20260503051540 10 311 0.0 0.0 0.00 0.00 0.00 58 1009.0
20260503050039 10 321 0.0 0.0 0.00 0.00 0.00 60 1009.1
20260503044536 10 315 0.0 0.0 0.00 0.00 0.00 62 1009.4
20260503043041 9 282 0.0 0.0 0.00 0.00 0.00 62 1009.5
20260503041533 9 290 0.0 0.0 0.00 0.00 0.00 64 1009.7
20260503040031 9 281 0.0 0.0 0.00 0.00 0.00 64 1009.7
20260503034526 9 327 0.0 0.0 0.00 0.00 0.00 64 1009.4
20260503033030 9 340 0.0 0.0 0.00 0.00 0.00 64 1009.6
20260503031518 9 342 0.0 0.0 0.00 0.00 0.00 64 1009.7
20260503030013 9 341 0.0 0.0 0.00 0.00 0.00 63 1009.4
20260503024521 9 341 0.0 0.0 0.00 0.00 0.00 57 1009.4
20260503023004 9 17 0.0 0.0 0.00 0.00 0.00 36 1009.5
20260503021604 9 130 0.0 0.0 0.00 0.00 0.00 21 1009.7
20260503020101 9 130 0.0 0.0 0.00 0.00 0.00 17 1009.5
20260503014557 10 130 0.0 0.0 0.00 0.00 0.00 16 1009.7
20260503013047 10 128 0.0 0.0 0.00 0.00 0.00 20 1009.8
20260503011542 10 128 0.0 0.0 0.00 0.00 0.00 30 1009.8
20260503010039 10 128 0.0 0.0 0.00 0.00 0.00 39 1009.5